sat.trackr.live / text

‹ back to catalog

STARLINK-36997

NORAD 68248 · 2026-054S

PAYLOAD ACTIVE UNKNOWN

§ Identity

Operator
Country
US
Launch date
2026-03-17
Launch site
AFETR
Launch vehicle
Mass (kg)
RCS (m²)

Purposes: comms

External: N2YO · Heavens-Above · Gunter

§ Orbital elements

Epoch: 2026-09-19T07:44:15.423072Z

Period
93.85 min
Inclination
53.1582°
Eccentricity
0.0000810
Mean motion
15.34399798 rev/d
Perigee alt
462.1 km
Apogee alt
463.3 km
Semi-major
6,840.8 km
B*
7.8203e-4
RAAN
114.9714°
Arg perigee
88.1356°
Mean anomaly
271.9740°
Rev number
2,867

§ Raw data

STARLINK-369971 68248U 26054S   26262.32240073  .00026138  00000+0  78203-3 0  99962 68248  53.1582 114.9714 0000810  88.1356 271.9740 15.34399798 28672

JSON: /api/v1/satellites/68248 · /tle

For live sub-satellite position, see the globe view (requires WebGL).

§ Visibility from observer

Set your observer location to see the next 7 days of passes ≥ 10°. The values pass through the URL so the page stays shareable.

No JS? Fill the form by hand. The geolocation button needs JavaScript.